This is the latest recevied weather packets stored in our database for station/object AB2HM. If no packets are shown the sender has not sent any weather packets the latest 10 day(s).
| Time | Temp. | Humidity | Pressure | Rain* | Wind** | Luminosity | Snow |
|---|---|---|---|---|---|---|---|
| 1777656423 | 18.33° C | 39% | 1013.6 hPa | 0 mm | - | - | - |
| 1777654615 | 17.78° C | 39% | 1013.8 hPa | 0 mm | - | - | - |
| 1777652796 | 17.22° C | 43% | 1014.2 hPa | 0 mm | - | - | - |
| 1777650978 | 16.11° C | 45% | 1014.7 hPa | 0 mm | - | - | - |
| 1777649176 | 15.56° C | 46% | 1015.1 hPa | 0 mm | - | - | - |
| 1777647369 | 15° C | 49% | 1015.4 hPa | 0 mm | - | - | - |
| 1777645569 | 14.44° C | 52% | 1015.4 hPa | 0 mm | - | - | - |
| 1777643763 | 13.89° C | 57% | 1015.4 hPa | 0 mm | - | - | - |
| 1777641954 | 13.33° C | 63% | 1015.5 hPa | 0 mm | - | - | - |
| 1777640148 | 12.22° C | 69% | 1015.5 hPa | 0 mm | - | - | - |
| 1777638338 | 11.11° C | 73% | 1015.5 hPa | 0 mm | - | - | - |
| 1777636534 | 10° C | 78% | 1015.5 hPa | 0 mm | - | - | - |
| 1777634733 | 8.89° C | 83% | 1015.4 hPa | 0 mm | - | - | - |
| 1777632929 | 7.78° C | 86% | 1015.3 hPa | 0 mm | - | - | - |
| 1777631125 | 8.33° C | 84% | 1015.2 hPa | 0 mm | - | - | - |
| 1777629322 | 8.33° C | 84% | 1014.8 hPa | 0 mm | - | - | - |
| 1777627502 | 8.33° C | 82% | 1014.7 hPa | 0 mm | - | - | - |
| 1777625686 | 8.89° C | 80% | 1014.5 hPa | 0 mm | - | - | - |
| 1777623884 | 9.44° C | 78% | 1014.3 hPa | 0 mm | - | - | - |
| 1777622086 | 10° C | 79% | 1014.1 hPa | 0 mm | - | - | - |
| 1777620263 | 10.56° C | 80% | 1013.9 hPa | 0 mm | - | - | - |
| 1777618458 | 10.56° C | 79% | 1013.7 hPa | 0 mm | - | - | - |
| 1777616657 | 11.11° C | 77% | 1013.6 hPa | 0 mm | - | - | - |
| 1777614850 | 11.67° C | 77% | 1013.5 hPa | 0 mm | - | - | - |
| 1777613044 | 11.67° C | 75% | 1013.3 hPa | 0 mm | - | - | - |
* Rain latest hour (hover to see other rain measurements)
** Current wind speed in m/s (hover to see current wind gust speed)